INTELSAT 31 (IS-31)

Last updated on Fri Dec 19 2025 00:02:51 GMT+0000 (Coordinated Universal Time)

1 41581U 16035A 25352.60647494 -.00000126 00000+0 00000+0 0 9999 2 41581 0.0235 272.5701 0002007 290.5326 7.6454 1.00270872 34876
UTC large
Height (km)
Speed (km/s)
/
Latitude / Longitude
Inclination (degrees)
Orbital Period (minutes)
Azimuth
Elevation
Range (km)
Doppler Factor

Next 0 passes for location: London (51.5072 / 0.1276)

Sorry there are no passes over London.